Location: Moscow
(55.7500°N, 37.5830°E)
Time: 22:22:20
(UTC+03:00)

A-11 Canister half - Pass Details

Date: 08 December 2021
Orbit: 1516 x 1684 km, 47.2° (Epoch: 16 January)

Event Time Altitude Azimuth Distance (km) Brightness Sun altitude
Rises 10:52:57 0° 273° (W) 4,831 11.4 9.3°
Reaches altitude 10° 10:56:11 10° 268° (W) 3,866 11.0 9.4°
Maximum altitude 11:05:23 45° 200° (SSW) 2,147 10.5 9.8°
Drops below altitude 10° 11:14:46 10° 132° (SE) 3,942 12.3 10.2°
Sets 11:18:07 0° 127° (SE) 4,932 12.6 10.3°
